TimeEST,TemperatureF,Dew PointF,Humidity,Sea Level PressureIn,VisibilityMPH,Wind Direction,Wind SpeedMPH,Gust SpeedMPH,PrecipitationIn,Events,Conditions,WindDirDegrees,DateUTC
12:13 AM,32.0,30.9,96,30.09,0.8,South,6.9,-,0.02,Rain,Light Freezing Rain,180,2013-01-30 05:13:00
12:23 AM,32.0,30.9,96,30.08,1.0,SSE,6.9,-,0.02,Rain,Light Freezing Rain,160,2013-01-30 05:23:00
12:30 AM,32.0,30.9,96,30.08,0.8,SSE,5.8,-,0.03,Rain,Light Freezing Rain,160,2013-01-30 05:30:00
12:54 AM,32.0,30.9,96,30.12,0.5,SSW,5.8,-,0.03,Fog-Rain,Light Freezing Rain,200,2013-01-30 05:54:00
1:06 AM,32.0,30.9,96,30.08,0.5,South,5.8,-,0.00,Fog,Fog,190,2013-01-30 06:06:00
1:13 AM,32.0,32.0,100,30.07,0.2,South,6.9,-,0.00,Fog,Fog,180,2013-01-30 06:13:00
1:20 AM,32.0,32.0,100,30.08,0.5,SSW,5.8,-,0.00,Fog,Fog,210,2013-01-30 06:20:00
1:30 AM,32.0,32.0,100,30.08,0.2,South,6.9,-,0.00,Fog,Fog,190,2013-01-30 06:30:00
1:45 AM,33.1,32.0,96,30.07,0.2,South,6.9,-,0.00,Fog-Rain,Light Freezing Rain,190,2013-01-30 06:45:00
1:54 AM,33.1,32.0,96,30.11,0.2,South,5.8,-,0.00,Fog-Rain,Light Freezing Rain,190,2013-01-30 06:54:00
2:23 AM,33.1,32.0,96,30.04,0.2,South,6.9,-,0.01,Fog-Rain,Light Rain,180,2013-01-30 07:23:00
2:54 AM,33.1,32.0,96,30.06,0.2,South,5.8,-,0.01,Fog,Fog,190,2013-01-30 07:54:00
3:54 AM,34.0,33.1,96,30.03,0.2,SSW,3.5,-,N/A,Fog,Fog,210,2013-01-30 08:54:00
4:54 AM,34.0,33.1,96,29.99,0.2,South,5.8,-,N/A,Fog,Fog,190,2013-01-30 09:54:00
5:54 AM,36.0,35.1,97,29.99,0.2,SSW,6.9,-,N/A,Fog,Fog,210,2013-01-30 10:54:00
6:54 AM,36.0,35.1,97,29.95,0.2,SSW,8.1,-,N/A,Fog,Fog,200,2013-01-30 11:54:00
7:54 AM,41.0,39.9,96,29.92,0.2,SSW,15.0,-,0.01,Fog-Rain,Light Rain,200,2013-01-30 12:54:00
8:54 AM,46.0,46.0,100,29.89,0.2,SSW,17.3,-,0.01,Fog-Rain,Light Rain,200,2013-01-30 13:54:00
9:54 AM,48.0,48.0,100,29.86,0.2,SSW,15.0,-,0.01,Fog-Rain,Light Rain,200,2013-01-30 14:54:00
10:54 AM,48.9,48.9,100,29.81,0.2,South,17.3,24.2,0.01,Fog,Fog,190,2013-01-30 15:54:00
11:30 AM,50.0,50.0,100,29.76,0.2,South,17.3,-,0.01,Fog,Fog,190,2013-01-30 16:30:00
11:54 AM,50.0,50.0,100,29.75,0.2,South,13.8,-,0.01,Fog,Fog,190,2013-01-30 16:54:00
12:08 PM,51.1,51.1,100,29.72,0.2,South,15.0,23.0,N/A,Fog,Fog,180,2013-01-30 17:08:00
12:54 PM,52.0,51.1,97,29.70,0.2,SSW,17.3,23.0,N/A,,Overcast,200,2013-01-30 17:54:00
1:22 PM,53.1,53.1,100,29.67,5.0,SSW,18.4,31.1,N/A,,Overcast,210,2013-01-30 18:22:00
1:43 PM,54.0,53.1,97,29.66,6.0,SW,21.9,29.9,N/A,,Overcast,220,2013-01-30 18:43:00
1:54 PM,54.0,53.1,97,29.68,6.0,SW,23.0,35.7,N/A,,Overcast,220,2013-01-30 18:54:00
2:33 PM,54.0,53.1,97,29.65,3.0,SW,20.7,27.6,N/A,,Overcast,220,2013-01-30 19:33:00
2:43 PM,53.1,53.1,100,29.64,2.0,SW,20.7,27.6,N/A,,Overcast,220,2013-01-30 19:43:00
2:54 PM,53.1,53.1,100,29.66,2.0,SW,18.4,35.7,N/A,,Overcast,220,2013-01-30 19:54:00
3:21 PM,53.1,53.1,100,29.64,1.5,SW,18.4,27.6,N/A,,Overcast,230,2013-01-30 20:21:00
3:52 PM,53.6,53.6,100,29.62,3.0,SSW,18.4,26.5,0.00,Rain,Light Rain,210,2013-01-30 20:52:00
3:54 PM,53.1,53.1,100,29.64,3.0,SSW,20.7,26.5,0.00,Rain,Light Rain,210,2013-01-30 20:54:00
4:54 PM,54.0,53.1,97,29.63,3.0,SW,19.6,31.1,0.01,Rain,Light Rain,220,2013-01-30 21:54:00
5:54 PM,55.0,53.1,93,29.60,3.0,SW,21.9,35.7,0.00,,Overcast,220,2013-01-30 22:54:00
6:40 PM,55.9,54.0,93,29.57,10.0,SSW,25.3,36.8,N/A,,Overcast,210,2013-01-30 23:40:00
6:54 PM,55.9,54.0,93,29.58,10.0,SSW,17.3,34.5,N/A,,Overcast,210,2013-01-30 23:54:00
7:54 PM,55.9,54.0,93,29.57,5.0,SW,21.9,33.4,0.01,Rain,Light Rain,220,2013-01-31 00:54:00
8:54 PM,55.9,54.0,93,29.55,9.0,SSW,20.7,32.2,0.02,,Overcast,210,2013-01-31 01:54:00
9:54 PM,55.0,54.0,96,29.52,8.0,SSW,17.3,26.5,0.00,Rain,Light Rain,210,2013-01-31 02:54:00
10:54 PM,55.0,54.0,96,29.49,6.0,SSW,20.7,29.9,0.02,Rain,Light Rain,210,2013-01-31 03:54:00
11:54 PM,55.9,55.0,97,29.43,7.0,SSW,25.3,40.3,0.02,Rain,Light Rain,200,2013-01-31 04:54:00